owner,sensor,date,latitude,longitude,vertical_datum,sea_water_temperature,qcFlag 
WAVCIS,ioos:station:WAVCIS:CSI09:1,2017-01-01T00:00:00Z,29.1015,-89.9782,0.0,-16.05,11144222 
WAVCIS,ioos:station:WAVCIS:CSI09:1,2017-01-01T01:00:00Z,29.1015,-89.9782,0.0,-16.07,11144222 
WAVCIS,ioos:station:WAVCIS:CSI09:1,2017-01-01T02:00:00Z,29.1015,-89.9782,0.0,-16.06,11144222 
WAVCIS,ioos:station:WAVCIS:CSI09:1,2017-01-01T03:00:00Z,29.1015,-89.9782,0.0,-16.05,11144222 
WAVCIS,ioos:station:WAVCIS:CSI09:1,2017-01-01T04:00:00Z,29.1015,-89.9782,0.0,-16.23,11144222 
WAVCIS,ioos:station:WAVCIS:CSI09:1,2017-01-01T05:00:00Z,29.1015,-89.9782,0.0,-16.41,11144222 
WAVCIS,ioos:station:WAVCIS:CSI09:1,2017-01-01T06:00:00Z,29.1015,-89.9782,0.0,-16.01,11144222 
WAVCIS,ioos:station:WAVCIS:CSI09:1,2017-01-01T07:00:00Z,29.1015,-89.9782,0.0,-16.32,11144222 
WAVCIS,ioos:station:WAVCIS:CSI09:1,2017-01-01T08:00:00Z,29.1015,-89.9782,0.0,-15.93,11144222 
WAVCIS,ioos:station:WAVCIS:CSI09:1,2017-01-01T09:00:00Z,29.1015,-89.9782,0.0,-16.02,11144222 
WAVCIS,ioos:station:WAVCIS:CSI09:1,2017-01-01T10:00:00Z,29.1015,-89.9782,0.0,-16.09,11144222 
WAVCIS,ioos:station:WAVCIS:CSI09:1,2017-01-01T11:00:00Z,29.1015,-89.9782,0.0,-16.29,11144222 
WAVCIS,ioos:station:WAVCIS:CSI09:1,2017-01-01T12:00:00Z,29.1015,-89.9782,0.0,-16.44,11144222 
WAVCIS,ioos:station:WAVCIS:CSI09:1,2017-01-01T13:00:00Z,29.1015,-89.9782,0.0,-16.56,11144222 
WAVCIS,ioos:station:WAVCIS:CSI09:1,2017-01-01T14:00:00Z,29.1015,-89.9782,0.0,-16.12,11144222 
WAVCIS,ioos:station:WAVCIS:CSI09:1,2017-01-01T15:00:00Z,29.1015,-89.9782,0.0,-16.26,11144222 
WAVCIS,ioos:station:WAVCIS:CSI09:1,2017-01-01T16:00:00Z,29.1015,-89.9782,0.0,-15.64,11144222 
WAVCIS,ioos:station:WAVCIS:CSI09:1,2017-01-01T17:00:00Z,29.1015,-89.9782,0.0,-15.88,11144222 
WAVCIS,ioos:station:WAVCIS:CSI09:1,2017-01-01T18:00:00Z,29.1015,-89.9782,0.0,-16.62,11144222 
WAVCIS,ioos:station:WAVCIS:CSI09:1,2017-01-01T19:00:00Z,29.1015,-89.9782,0.0,-16.33,11144222 
WAVCIS,ioos:station:WAVCIS:CSI09:1,2017-01-01T20:00:00Z,29.1015,-89.9782,0.0,-16.18,11144222 
WAVCIS,ioos:station:WAVCIS:CSI09:1,2017-01-01T21:00:00Z,29.1015,-89.9782,0.0,-15.72,11144222 
WAVCIS,ioos:station:WAVCIS:CSI09:1,2017-01-01T22:00:00Z,29.1015,-89.9782,0.0,-16.2,11144222 
WAVCIS,ioos:station:WAVCIS:CSI09:1,2017-01-01T23:00:00Z,29.1015,-89.9782,0.0,-15.65,11144222 
WAVCIS,ioos:station:WAVCIS:CSI09:1,2017-01-02T00:00:00Z,29.1015,-89.9782,0.0,-16.62,11144222 
WAVCIS,ioos:station:WAVCIS:CSI09:1,2017-01-02T01:00:00Z,29.1015,-89.9782,0.0,-16.31,11144222 
WAVCIS,ioos:station:WAVCIS:CSI09:1,2017-01-02T02:00:00Z,29.1015,-89.9782,0.0,-16.2,11144222 
WAVCIS,ioos:station:WAVCIS:CSI09:1,2017-01-02T03:00:00Z,29.1015,-89.9782,0.0,-16.34,11144222 
WAVCIS,ioos:station:WAVCIS:CSI09:1,2017-01-02T04:00:00Z,29.1015,-89.9782,0.0,-16.56,11144222 
WAVCIS,ioos:station:WAVCIS:CSI09:1,2017-01-02T05:00:00Z,29.1015,-89.9782,0.0,-16.31,11144222 
WAVCIS,ioos:station:WAVCIS:CSI09:1,2017-01-02T06:00:00Z,29.1015,-89.9782,0.0,-16.5,11144222 
WAVCIS,ioos:station:WAVCIS:CSI09:1,2017-01-02T07:00:00Z,29.1015,-89.9782,0.0,-15.94,11144222 
WAVCIS,ioos:station:WAVCIS:CSI09:1,2017-01-02T08:00:00Z,29.1015,-89.9782,0.0,-16.1,11144222 
WAVCIS,ioos:station:WAVCIS:CSI09:1,2017-01-02T09:00:00Z,29.1015,-89.9782,0.0,-16.44,11144222 
WAVCIS,ioos:station:WAVCIS:CSI09:1,2017-01-02T10:00:00Z,29.1015,-89.9782,0.0,-16.04,11144222 
WAVCIS,ioos:station:WAVCIS:CSI09:1,2017-01-02T11:00:00Z,29.1015,-89.9782,0.0,-16.24,11144222 
WAVCIS,ioos:station:WAVCIS:CSI09:1,2017-01-02T12:00:00Z,29.1015,-89.9782,0.0,-16.56,11144222 
WAVCIS,ioos:station:WAVCIS:CSI09:1,2017-01-02T13:00:00Z,29.1015,-89.9782,0.0,-16.59,11144222 
WAVCIS,ioos:station:WAVCIS:CSI09:1,2017-01-02T14:00:00Z,29.1015,-89.9782,0.0,-16.34,11144222 
WAVCIS,ioos:station:WAVCIS:CSI09:1,2017-01-02T15:00:00Z,29.1015,-89.9782,0.0,-16.27,11144222 
WAVCIS,ioos:station:WAVCIS:CSI09:1,2017-01-02T16:00:00Z,29.1015,-89.9782,0.0,-15.34,11144222 
WAVCIS,ioos:station:WAVCIS:CSI09:1,2017-01-02T17:00:00Z,29.1015,-89.9782,0.0,-16.08,11144222 
WAVCIS,ioos:station:WAVCIS:CSI09:1,2017-01-02T18:00:00Z,29.1015,-89.9782,0.0,-16.02,11144222 
WAVCIS,ioos:station:WAVCIS:CSI09:1,2017-01-02T19:00:00Z,29.1015,-89.9782,0.0,-15.94,11144222 
WAVCIS,ioos:station:WAVCIS:CSI09:1,2017-01-02T20:00:00Z,29.1015,-89.9782,0.0,-16.21,11144222 
WAVCIS,ioos:station:WAVCIS:CSI09:1,2017-01-02T21:00:00Z,29.1015,-89.9782,0.0,-15.76,11144222 
WAVCIS,ioos:station:WAVCIS:CSI09:1,2017-01-02T22:00:00Z,29.1015,-89.9782,0.0,-15.64,11144222 
WAVCIS,ioos:station:WAVCIS:CSI09:1,2017-01-02T23:00:00Z,29.1015,-89.9782,0.0,-16.45,11144222 
WAVCIS,ioos:station:WAVCIS:CSI09:1,2017-01-03T00:00:00Z,29.1015,-89.9782,0.0,-15.64,11144222 
WAVCIS,ioos:station:WAVCIS:CSI09:1,2017-01-03T01:00:00Z,29.1015,-89.9782,0.0,-16.07,11144222 
WAVCIS,ioos:station:WAVCIS:CSI09:1,2017-01-03T02:00:00Z,29.1015,-89.9782,0.0,-15.83,11144222 
WAVCIS,ioos:station:WAVCIS:CSI09:1,2017-01-03T03:00:00Z,29.1015,-89.9782,0.0,-16.37,11144222 
WAVCIS,ioos:station:WAVCIS:CSI09:1,2017-01-03T04:00:00Z,29.1015,-89.9782,0.0,-16.31,11144222 
WAVCIS,ioos:station:WAVCIS:CSI09:1,2017-01-03T05:00:00Z,29.1015,-89.9782,0.0,-16.29,11144222 
WAVCIS,ioos:station:WAVCIS:CSI09:1,2017-01-03T06:00:00Z,29.1015,-89.9782,0.0,-15.86,11144222 
WAVCIS,ioos:station:WAVCIS:CSI09:1,2017-01-03T07:00:00Z,29.1015,-89.9782,0.0,-15.7,11144222 
WAVCIS,ioos:station:WAVCIS:CSI09:1,2017-01-03T08:00:00Z,29.1015,-89.9782,0.0,-16.5,11144222 
WAVCIS,ioos:station:WAVCIS:CSI09:1,2017-01-03T09:00:00Z,29.1015,-89.9782,0.0,-16.64,11144222 
WAVCIS,ioos:station:WAVCIS:CSI09:1,2017-01-03T10:00:00Z,29.1015,-89.9782,0.0,-16.78,11144222 
WAVCIS,ioos:station:WAVCIS:CSI09:1,2017-01-03T11:00:00Z,29.1015,-89.9782,0.0,-16.84,11144222 
WAVCIS,ioos:station:WAVCIS:CSI09:1,2017-01-03T12:00:00Z,29.1015,-89.9782,0.0,-16.67,11144222 
WAVCIS,ioos:station:WAVCIS:CSI09:1,2017-01-03T13:00:00Z,29.1015,-89.9782,0.0,-16.06,11144222 
WAVCIS,ioos:station:WAVCIS:CSI09:1,2017-01-03T14:00:00Z,29.1015,-89.9782,0.0,-16.23,11144222 
WAVCIS,ioos:station:WAVCIS:CSI09:1,2017-01-03T15:00:00Z,29.1015,-89.9782,0.0,-16.59,11144222 
WAVCIS,ioos:station:WAVCIS:CSI09:1,2017-01-03T16:00:00Z,29.1015,-89.9782,0.0,-16.16,11144222 
WAVCIS,ioos:station:WAVCIS:CSI09:1,2017-01-03T17:00:00Z,29.1015,-89.9782,0.0,-17.48,11144222 
WAVCIS,ioos:station:WAVCIS:CSI09:1,2017-01-03T18:00:00Z,29.1015,-89.9782,0.0,-16.78,11144222 
WAVCIS,ioos:station:WAVCIS:CSI09:1,2017-01-03T19:00:00Z,29.1015,-89.9782,0.0,-16.36,11144222 
WAVCIS,ioos:station:WAVCIS:CSI09:1,2017-01-03T20:00:00Z,29.1015,-89.9782,0.0,-16.46,11144222 
WAVCIS,ioos:station:WAVCIS:CSI09:1,2017-01-03T21:00:00Z,29.1015,-89.9782,0.0,-16.76,11144222 
WAVCIS,ioos:station:WAVCIS:CSI09:1,2017-01-03T22:00:00Z,29.1015,-89.9782,0.0,-16.41,11144222 
WAVCIS,ioos:station:WAVCIS:CSI09:1,2017-01-03T23:00:00Z,29.1015,-89.9782,0.0,-16.44,11144222 
WAVCIS,ioos:station:WAVCIS:CSI09:1,2017-01-04T00:00:00Z,29.1015,-89.9782,0.0,-17.03,11144222 
WAVCIS,ioos:station:WAVCIS:CSI09:1,2017-01-04T01:00:00Z,29.1015,-89.9782,0.0,-16.91,11144222 
WAVCIS,ioos:station:WAVCIS:CSI09:1,2017-01-04T02:00:00Z,29.1015,-89.9782,0.0,-17.31,11144222 
WAVCIS,ioos:station:WAVCIS:CSI09:1,2017-01-04T03:00:00Z,29.1015,-89.9782,0.0,-16.16,11144222 
WAVCIS,ioos:station:WAVCIS:CSI09:1,2017-01-04T04:00:00Z,29.1015,-89.9782,0.0,-16.55,11144222 
WAVCIS,ioos:station:WAVCIS:CSI09:1,2017-01-04T05:00:00Z,29.1015,-89.9782,0.0,-16.27,11144222 
WAVCIS,ioos:station:WAVCIS:CSI09:1,2017-01-04T06:00:00Z,29.1015,-89.9782,0.0,-16.59,11144222 
WAVCIS,ioos:station:WAVCIS:CSI09:1,2017-01-04T07:00:00Z,29.1015,-89.9782,0.0,-16.69,11144222 
WAVCIS,ioos:station:WAVCIS:CSI09:1,2017-01-04T08:00:00Z,29.1015,-89.9782,0.0,-16.98,11144222 
WAVCIS,ioos:station:WAVCIS:CSI09:1,2017-01-04T09:00:00Z,29.1015,-89.9782,0.0,-17.08,11144222 
WAVCIS,ioos:station:WAVCIS:CSI09:1,2017-01-04T10:00:00Z,29.1015,-89.9782,0.0,-16.77,11144222 
WAVCIS,ioos:station:WAVCIS:CSI09:1,2017-01-04T11:00:00Z,29.1015,-89.9782,0.0,-16.94,11144222 
WAVCIS,ioos:station:WAVCIS:CSI09:1,2017-01-04T12:00:00Z,29.1015,-89.9782,0.0,-16.5,11144222 
WAVCIS,ioos:station:WAVCIS:CSI09:1,2017-01-04T13:00:00Z,29.1015,-89.9782,0.0,-16.37,11144222 
WAVCIS,ioos:station:WAVCIS:CSI09:1,2017-01-04T14:00:00Z,29.1015,-89.9782,0.0,-16.94,11144222 
WAVCIS,ioos:station:WAVCIS:CSI09:1,2017-01-04T15:00:00Z,29.1015,-89.9782,0.0,-16.79,11144222 
WAVCIS,ioos:station:WAVCIS:CSI09:1,2017-01-04T16:00:00Z,29.1015,-89.9782,0.0,-16.34,11144222 
WAVCIS,ioos:station:WAVCIS:CSI09:1,2017-01-04T17:00:00Z,29.1015,-89.9782,0.0,-16.77,11144222 
WAVCIS,ioos:station:WAVCIS:CSI09:1,2017-01-04T18:00:00Z,29.1015,-89.9782,0.0,-16.39,11144222 
WAVCIS,ioos:station:WAVCIS:CSI09:1,2017-01-04T19:00:00Z,29.1015,-89.9782,0.0,-17.49,11144222 
WAVCIS,ioos:station:WAVCIS:CSI09:1,2017-01-04T20:00:00Z,29.1015,-89.9782,0.0,-16.92,11144222 
WAVCIS,ioos:station:WAVCIS:CSI09:1,2017-01-04T21:00:00Z,29.1015,-89.9782,0.0,-17.36,11144222 
WAVCIS,ioos:station:WAVCIS:CSI09:1,2017-01-04T22:00:00Z,29.1015,-89.9782,0.0,-17.68,11144222 
WAVCIS,ioos:station:WAVCIS:CSI09:1,2017-01-04T23:00:00Z,29.1015,-89.9782,0.0,-17.13,11144222 
WAVCIS,ioos:station:WAVCIS:CSI09:1,2017-01-05T00:00:00Z,29.1015,-89.9782,0.0,-17.31,11144222 
WAVCIS,ioos:station:WAVCIS:CSI09:1,2017-01-05T01:00:00Z,29.1015,-89.9782,0.0,-16.34,11144222 
WAVCIS,ioos:station:WAVCIS:CSI09:1,2017-01-05T02:00:00Z,29.1015,-89.9782,0.0,-15.45,11144222 
WAVCIS,ioos:station:WAVCIS:CSI09:1,2017-01-05T03:00:00Z,29.1015,-89.9782,0.0,-15.91,11144222 
WAVCIS,ioos:station:WAVCIS:CSI09:1,2017-01-05T04:00:00Z,29.1015,-89.9782,0.0,-15.52,11144222 
WAVCIS,ioos:station:WAVCIS:CSI09:1,2017-01-05T05:00:00Z,29.1015,-89.9782,0.0,-16.43,11144222 
WAVCIS,ioos:station:WAVCIS:CSI09:1,2017-01-05T06:00:00Z,29.1015,-89.9782,0.0,-16.08,11144222 
WAVCIS,ioos:station:WAVCIS:CSI09:1,2017-01-05T07:00:00Z,29.1015,-89.9782,0.0,-16.64,11144222 
WAVCIS,ioos:station:WAVCIS:CSI09:1,2017-01-05T08:00:00Z,29.1015,-89.9782,0.0,-16.59,11144222 
WAVCIS,ioos:station:WAVCIS:CSI09:1,2017-01-05T09:00:00Z,29.1015,-89.9782,0.0,-14.26,11144222 
WAVCIS,ioos:station:WAVCIS:CSI09:1,2017-01-05T10:00:00Z,29.1015,-89.9782,0.0,-13.93,11144222 
WAVCIS,ioos:station:WAVCIS:CSI09:1,2017-01-05T11:00:00Z,29.1015,-89.9782,0.0,-16.48,11144222 
WAVCIS,ioos:station:WAVCIS:CSI09:1,2017-01-05T12:00:00Z,29.1015,-89.9782,0.0,-15.59,11144222 
WAVCIS,ioos:station:WAVCIS:CSI09:1,2017-01-05T13:00:00Z,29.1015,-89.9782,0.0,-16.7,11144222 
WAVCIS,ioos:station:WAVCIS:CSI09:1,2017-01-05T14:00:00Z,29.1015,-89.9782,0.0,-16.45,11144222 
WAVCIS,ioos:station:WAVCIS:CSI09:1,2017-01-05T15:00:00Z,29.1015,-89.9782,0.0,-16.49,11144222 
WAVCIS,ioos:station:WAVCIS:CSI09:1,2017-01-05T16:00:00Z,29.1015,-89.9782,0.0,-16.08,11144222 
WAVCIS,ioos:station:WAVCIS:CSI09:1,2017-01-05T17:00:00Z,29.1015,-89.9782,0.0,-16.53,11144222 
WAVCIS,ioos:station:WAVCIS:CSI09:1,2017-01-05T18:00:00Z,29.1015,-89.9782,0.0,-16.29,11144222 
WAVCIS,ioos:station:WAVCIS:CSI09:1,2017-01-05T19:00:00Z,29.1015,-89.9782,0.0,-15.87,11144222 
WAVCIS,ioos:station:WAVCIS:CSI09:1,2017-01-05T20:00:00Z,29.1015,-89.9782,0.0,-16.32,11144222 
WAVCIS,ioos:station:WAVCIS:CSI09:1,2017-01-05T21:00:00Z,29.1015,-89.9782,0.0,-15.77,11144222 
WAVCIS,ioos:station:WAVCIS:CSI09:1,2017-01-05T22:00:00Z,29.1015,-89.9782,0.0,-15.26,11144222 
WAVCIS,ioos:station:WAVCIS:CSI09:1,2017-01-05T23:00:00Z,29.1015,-89.9782,0.0,-14.63,11144222 
WAVCIS,ioos:station:WAVCIS:CSI09:1,2017-01-06T00:00:00Z,29.1015,-89.9782,0.0,-16.17,11144222 
WAVCIS,ioos:station:WAVCIS:CSI09:1,2017-01-06T01:00:00Z,29.1015,-89.9782,0.0,-16.44,11144222 
WAVCIS,ioos:station:WAVCIS:CSI09:1,2017-01-06T02:00:00Z,29.1015,-89.9782,0.0,-15.94,11144222 
WAVCIS,ioos:station:WAVCIS:CSI09:1,2017-01-06T03:00:00Z,29.1015,-89.9782,0.0,-16.14,11144222 
WAVCIS,ioos:station:WAVCIS:CSI09:1,2017-01-06T04:00:00Z,29.1015,-89.9782,0.0,-16.14,11144222 
WAVCIS,ioos:station:WAVCIS:CSI09:1,2017-01-06T05:00:00Z,29.1015,-89.9782,0.0,-15.39,11144222 
WAVCIS,ioos:station:WAVCIS:CSI09:1,2017-01-06T06:00:00Z,29.1015,-89.9782,0.0,-15.68,11144222 
WAVCIS,ioos:station:WAVCIS:CSI09:1,2017-01-06T07:00:00Z,29.1015,-89.9782,0.0,-15.92,11144222 
WAVCIS,ioos:station:WAVCIS:CSI09:1,2017-01-06T08:00:00Z,29.1015,-89.9782,0.0,-14.81,11144222 
WAVCIS,ioos:station:WAVCIS:CSI09:1,2017-01-06T09:00:00Z,29.1015,-89.9782,0.0,-13.08,11144222 
WAVCIS,ioos:station:WAVCIS:CSI09:1,2017-01-06T10:00:00Z,29.1015,-89.9782,0.0,-11.21,11144222 
WAVCIS,ioos:station:WAVCIS:CSI09:1,2017-01-06T11:00:00Z,29.1015,-89.9782,0.0,-11.99,11144222 
WAVCIS,ioos:station:WAVCIS:CSI09:1,2017-01-06T12:00:00Z,29.1015,-89.9782,0.0,-11.49,11144222 
WAVCIS,ioos:station:WAVCIS:CSI09:1,2017-01-06T13:00:00Z,29.1015,-89.9782,0.0,-10.47,11144222 
WAVCIS,ioos:station:WAVCIS:CSI09:1,2017-01-06T14:00:00Z,29.1015,-89.9782,0.0,-10.85,11144222 
WAVCIS,ioos:station:WAVCIS:CSI09:1,2017-01-06T15:00:00Z,29.1015,-89.9782,0.0,-10.78,11144222 
WAVCIS,ioos:station:WAVCIS:CSI09:1,2017-01-06T16:00:00Z,29.1015,-89.9782,0.0,-10.27,11144222 
WAVCIS,ioos:station:WAVCIS:CSI09:1,2017-01-06T17:00:00Z,29.1015,-89.9782,0.0,-9.49,11144222 
WAVCIS,ioos:station:WAVCIS:CSI09:1,2017-01-06T18:00:00Z,29.1015,-89.9782,0.0,-9.72,11144222 
WAVCIS,ioos:station:WAVCIS:CSI09:1,2017-01-06T19:00:00Z,29.1015,-89.9782,0.0,-9.81,11144222 
WAVCIS,ioos:station:WAVCIS:CSI09:1,2017-01-06T20:00:00Z,29.1015,-89.9782,0.0,-9.63,11144222 
WAVCIS,ioos:station:WAVCIS:CSI09:1,2017-01-06T21:00:00Z,29.1015,-89.9782,0.0,-10.64,11144222 
WAVCIS,ioos:station:WAVCIS:CSI09:1,2017-01-06T22:00:00Z,29.1015,-89.9782,0.0,-10.81,11144222 
WAVCIS,ioos:station:WAVCIS:CSI09:1,2017-01-06T23:00:00Z,29.1015,-89.9782,0.0,-9.34,11144222 
WAVCIS,ioos:station:WAVCIS:CSI09:1,2017-01-07T00:00:00Z,29.1015,-89.9782,0.0,-10.16,11144222 
WAVCIS,ioos:station:WAVCIS:CSI09:1,2017-01-07T01:00:00Z,29.1015,-89.9782,0.0,-10.41,11144222 
WAVCIS,ioos:station:WAVCIS:CSI09:1,2017-01-07T02:00:00Z,29.1015,-89.9782,0.0,-10.09,11144222 
WAVCIS,ioos:station:WAVCIS:CSI09:1,2017-01-07T03:00:00Z,29.1015,-89.9782,0.0,-10.7,11144222 
WAVCIS,ioos:station:WAVCIS:CSI09:1,2017-01-07T04:00:00Z,29.1015,-89.9782,0.0,-10.59,11144222 
WAVCIS,ioos:station:WAVCIS:CSI09:1,2017-01-07T05:00:00Z,29.1015,-89.9782,0.0,-11.09,11144222 
WAVCIS,ioos:station:WAVCIS:CSI09:1,2017-01-07T06:00:00Z,29.1015,-89.9782,0.0,-10.76,11144222 
WAVCIS,ioos:station:WAVCIS:CSI09:1,2017-01-07T07:00:00Z,29.1015,-89.9782,0.0,-10.69,11144222 
WAVCIS,ioos:station:WAVCIS:CSI09:1,2017-01-07T08:00:00Z,29.1015,-89.9782,0.0,-10.51,11144222 
WAVCIS,ioos:station:WAVCIS:CSI09:1,2017-01-07T09:00:00Z,29.1015,-89.9782,0.0,-10.72,11144222 
WAVCIS,ioos:station:WAVCIS:CSI09:1,2017-01-07T10:00:00Z,29.1015,-89.9782,0.0,-10.58,11144222 
WAVCIS,ioos:station:WAVCIS:CSI09:1,2017-01-07T11:00:00Z,29.1015,-89.9782,0.0,-10.34,11144222 
WAVCIS,ioos:station:WAVCIS:CSI09:1,2017-01-07T12:00:00Z,29.1015,-89.9782,0.0,-10.66,11144222 
WAVCIS,ioos:station:WAVCIS:CSI09:1,2017-01-07T13:00:00Z,29.1015,-89.9782,0.0,-10.89,11144222 
WAVCIS,ioos:station:WAVCIS:CSI09:1,2017-01-07T14:00:00Z,29.1015,-89.9782,0.0,-12.2,11144222 
WAVCIS,ioos:station:WAVCIS:CSI09:1,2017-01-07T15:00:00Z,29.1015,-89.9782,0.0,-11.06,11144222 
WAVCIS,ioos:station:WAVCIS:CSI09:1,2017-01-07T16:00:00Z,29.1015,-89.9782,0.0,-11.66,11144222 
WAVCIS,ioos:station:WAVCIS:CSI09:1,2017-01-07T17:00:00Z,29.1015,-89.9782,0.0,-11.27,11144222 
WAVCIS,ioos:station:WAVCIS:CSI09:1,2017-01-07T18:00:00Z,29.1015,-89.9782,0.0,-12.27,11144222 
WAVCIS,ioos:station:WAVCIS:CSI09:1,2017-01-07T19:00:00Z,29.1015,-89.9782,0.0,-13.48,11144222 
WAVCIS,ioos:station:WAVCIS:CSI09:1,2017-01-07T20:00:00Z,29.1015,-89.9782,0.0,-13.09,11144222 
WAVCIS,ioos:station:WAVCIS:CSI09:1,2017-01-07T21:00:00Z,29.1015,-89.9782,0.0,-13.07,11144222 
WAVCIS,ioos:station:WAVCIS:CSI09:1,2017-01-07T22:00:00Z,29.1015,-89.9782,0.0,-13.05,11144222 
WAVCIS,ioos:station:WAVCIS:CSI09:1,2017-01-07T23:00:00Z,29.1015,-89.9782,0.0,-14.34,11144222 
WAVCIS,ioos:station:WAVCIS:CSI09:1,2017-01-08T00:00:00Z,29.1015,-89.9782,0.0,-13.24,11144222 
WAVCIS,ioos:station:WAVCIS:CSI09:1,2017-01-08T01:00:00Z,29.1015,-89.9782,0.0,-13.72,11144222 
WAVCIS,ioos:station:WAVCIS:CSI09:1,2017-01-08T02:00:00Z,29.1015,-89.9782,0.0,-13.09,11144222 
WAVCIS,ioos:station:WAVCIS:CSI09:1,2017-01-08T03:00:00Z,29.1015,-89.9782,0.0,-13.72,11144222 
WAVCIS,ioos:station:WAVCIS:CSI09:1,2017-01-08T04:00:00Z,29.1015,-89.9782,0.0,-12.96,11144222 
WAVCIS,ioos:station:WAVCIS:CSI09:1,2017-01-08T05:00:00Z,29.1015,-89.9782,0.0,-13.09,11144222 
WAVCIS,ioos:station:WAVCIS:CSI09:1,2017-01-08T06:00:00Z,29.1015,-89.9782,0.0,-13.12,11144222 
WAVCIS,ioos:station:WAVCIS:CSI09:1,2017-01-08T07:00:00Z,29.1015,-89.9782,0.0,-14.34,11144222 
WAVCIS,ioos:station:WAVCIS:CSI09:1,2017-01-08T08:00:00Z,29.1015,-89.9782,0.0,-11.51,11144222 
WAVCIS,ioos:station:WAVCIS:CSI09:1,2017-01-08T09:00:00Z,29.1015,-89.9782,0.0,-13.5,11144222 
WAVCIS,ioos:station:WAVCIS:CSI09:1,2017-01-08T10:00:00Z,29.1015,-89.9782,0.0,-12.43,11144222 
WAVCIS,ioos:station:WAVCIS:CSI09:1,2017-01-08T11:00:00Z,29.1015,-89.9782,0.0,-13.43,11144222 
WAVCIS,ioos:station:WAVCIS:CSI09:1,2017-01-08T12:00:00Z,29.1015,-89.9782,0.0,-13.16,11144222 
WAVCIS,ioos:station:WAVCIS:CSI09:1,2017-01-08T13:00:00Z,29.1015,-89.9782,0.0,-12.01,11144222 
WAVCIS,ioos:station:WAVCIS:CSI09:1,2017-01-08T14:00:00Z,29.1015,-89.9782,0.0,-12.66,11144222 
WAVCIS,ioos:station:WAVCIS:CSI09:1,2017-01-08T15:00:00Z,29.1015,-89.9782,0.0,-13.71,11144222 
WAVCIS,ioos:station:WAVCIS:CSI09:1,2017-01-08T16:00:00Z,29.1015,-89.9782,0.0,-13.16,11144222 
WAVCIS,ioos:station:WAVCIS:CSI09:1,2017-01-08T17:00:00Z,29.1015,-89.9782,0.0,-11.84,11144222 
WAVCIS,ioos:station:WAVCIS:CSI09:1,2017-01-08T18:00:00Z,29.1015,-89.9782,0.0,-12.9,11144222 
WAVCIS,ioos:station:WAVCIS:CSI09:1,2017-01-08T19:00:00Z,29.1015,-89.9782,0.0,-13.42,11144222 
WAVCIS,ioos:station:WAVCIS:CSI09:1,2017-01-08T20:00:00Z,29.1015,-89.9782,0.0,-13.01,11144222 
WAVCIS,ioos:station:WAVCIS:CSI09:1,2017-01-08T21:00:00Z,29.1015,-89.9782,0.0,-13.09,11144222 
WAVCIS,ioos:station:WAVCIS:CSI09:1,2017-01-08T22:00:00Z,29.1015,-89.9782,0.0,-11.46,11144222 
WAVCIS,ioos:station:WAVCIS:CSI09:1,2017-01-08T23:00:00Z,29.1015,-89.9782,0.0,-12.7,11144222 
WAVCIS,ioos:station:WAVCIS:CSI09:1,2017-01-09T00:00:00Z,29.1015,-89.9782,0.0,-13.24,11144222 
WAVCIS,ioos:station:WAVCIS:CSI09:1,2017-01-09T01:00:00Z,29.1015,-89.9782,0.0,-13.13,11144222 
WAVCIS,ioos:station:WAVCIS:CSI09:1,2017-01-09T02:00:00Z,29.1015,-89.9782,0.0,-12.65,11144222 
WAVCIS,ioos:station:WAVCIS:CSI09:1,2017-01-09T03:00:00Z,29.1015,-89.9782,0.0,-12.96,11144222 
WAVCIS,ioos:station:WAVCIS:CSI09:1,2017-01-09T04:00:00Z,29.1015,-89.9782,0.0,-13.75,11144222 
WAVCIS,ioos:station:WAVCIS:CSI09:1,2017-01-09T05:00:00Z,29.1015,-89.9782,0.0,-14.0,11144222 
WAVCIS,ioos:station:WAVCIS:CSI09:1,2017-01-09T06:00:00Z,29.1015,-89.9782,0.0,-14.09,11144222 
WAVCIS,ioos:station:WAVCIS:CSI09:1,2017-01-09T07:00:00Z,29.1015,-89.9782,0.0,-13.13,11144222 
WAVCIS,ioos:station:WAVCIS:CSI09:1,2017-01-09T08:00:00Z,29.1015,-89.9782,0.0,-13.6,11144222 
WAVCIS,ioos:station:WAVCIS:CSI09:1,2017-01-09T09:00:00Z,29.1015,-89.9782,0.0,-13.88,11144222 
WAVCIS,ioos:station:WAVCIS:CSI09:1,2017-01-09T10:00:00Z,29.1015,-89.9782,0.0,-13.04,11144222 
WAVCIS,ioos:station:WAVCIS:CSI09:1,2017-01-09T11:00:00Z,29.1015,-89.9782,0.0,-13.59,11144222 
WAVCIS,ioos:station:WAVCIS:CSI09:1,2017-01-09T12:00:00Z,29.1015,-89.9782,0.0,-12.98,11144222 
WAVCIS,ioos:station:WAVCIS:CSI09:1,2017-01-09T13:00:00Z,29.1015,-89.9782,0.0,-12.42,11144222 
WAVCIS,ioos:station:WAVCIS:CSI09:1,2017-01-09T14:00:00Z,29.1015,-89.9782,0.0,-12.89,11144222 
WAVCIS,ioos:station:WAVCIS:CSI09:1,2017-01-09T15:00:00Z,29.1015,-89.9782,0.0,-13.32,11144222 
WAVCIS,ioos:station:WAVCIS:CSI09:1,2017-01-09T16:00:00Z,29.1015,-89.9782,0.0,-12.65,11144222 
WAVCIS,ioos:station:WAVCIS:CSI09:1,2017-01-09T17:00:00Z,29.1015,-89.9782,0.0,-12.73,11144222 
WAVCIS,ioos:station:WAVCIS:CSI09:1,2017-01-09T18:00:00Z,29.1015,-89.9782,0.0,-12.74,11144222 
WAVCIS,ioos:station:WAVCIS:CSI09:1,2017-01-09T19:00:00Z,29.1015,-89.9782,0.0,-13.04,11144222 
WAVCIS,ioos:station:WAVCIS:CSI09:1,2017-01-09T20:00:00Z,29.1015,-89.9782,0.0,-13.54,11144222 
WAVCIS,ioos:station:WAVCIS:CSI09:1,2017-01-09T21:00:00Z,29.1015,-89.9782,0.0,-13.77,11144222 
WAVCIS,ioos:station:WAVCIS:CSI09:1,2017-01-09T22:00:00Z,29.1015,-89.9782,0.0,-12.51,11144222 
WAVCIS,ioos:station:WAVCIS:CSI09:1,2017-01-09T23:00:00Z,29.1015,-89.9782,0.0,-13.21,11144222 
WAVCIS,ioos:station:WAVCIS:CSI09:1,2017-01-10T00:00:00Z,29.1015,-89.9782,0.0,-13.41,11144222 
WAVCIS,ioos:station:WAVCIS:CSI09:1,2017-01-10T01:00:00Z,29.1015,-89.9782,0.0,-13.46,11144222 
WAVCIS,ioos:station:WAVCIS:CSI09:1,2017-01-10T02:00:00Z,29.1015,-89.9782,0.0,-13.22,11144222 
WAVCIS,ioos:station:WAVCIS:CSI09:1,2017-01-10T03:00:00Z,29.1015,-89.9782,0.0,-12.78,11144222 
WAVCIS,ioos:station:WAVCIS:CSI09:1,2017-01-10T04:00:00Z,29.1015,-89.9782,0.0,-11.86,11144222 
WAVCIS,ioos:station:WAVCIS:CSI09:1,2017-01-10T05:00:00Z,29.1015,-89.9782,0.0,-12.68,11144222 
WAVCIS,ioos:station:WAVCIS:CSI09:1,2017-01-10T06:00:00Z,29.1015,-89.9782,0.0,-11.38,11144222 
WAVCIS,ioos:station:WAVCIS:CSI09:1,2017-01-10T07:00:00Z,29.1015,-89.9782,0.0,-13.0,11144222 
WAVCIS,ioos:station:WAVCIS:CSI09:1,2017-01-10T08:00:00Z,29.1015,-89.9782,0.0,-11.75,11144222 
WAVCIS,ioos:station:WAVCIS:CSI09:1,2017-01-10T09:00:00Z,29.1015,-89.9782,0.0,-11.93,11144222 
WAVCIS,ioos:station:WAVCIS:CSI09:1,2017-01-10T10:00:00Z,29.1015,-89.9782,0.0,-11.37,11144222 
WAVCIS,ioos:station:WAVCIS:CSI09:1,2017-01-10T11:00:00Z,29.1015,-89.9782,0.0,-11.91,11144222 
WAVCIS,ioos:station:WAVCIS:CSI09:1,2017-01-10T12:00:00Z,29.1015,-89.9782,0.0,-11.88,11144222 
WAVCIS,ioos:station:WAVCIS:CSI09:1,2017-01-10T13:00:00Z,29.1015,-89.9782,0.0,-11.95,11144222 
WAVCIS,ioos:station:WAVCIS:CSI09:1,2017-01-10T14:00:00Z,29.1015,-89.9782,0.0,-11.73,11144222 
WAVCIS,ioos:station:WAVCIS:CSI09:1,2017-01-10T15:00:00Z,29.1015,-89.9782,0.0,-12.47,11144222 
WAVCIS,ioos:station:WAVCIS:CSI09:1,2017-01-10T16:00:00Z,29.1015,-89.9782,0.0,-12.47,11144222 
WAVCIS,ioos:station:WAVCIS:CSI09:1,2017-01-10T17:00:00Z,29.1015,-89.9782,0.0,-11.94,11144222 
WAVCIS,ioos:station:WAVCIS:CSI09:1,2017-01-10T18:00:00Z,29.1015,-89.9782,0.0,-12.36,11144222 
WAVCIS,ioos:station:WAVCIS:CSI09:1,2017-01-10T19:00:00Z,29.1015,-89.9782,0.0,-12.51,11144222 
WAVCIS,ioos:station:WAVCIS:CSI09:1,2017-01-10T20:00:00Z,29.1015,-89.9782,0.0,-11.53,11144222 
WAVCIS,ioos:station:WAVCIS:CSI09:1,2017-01-10T21:00:00Z,29.1015,-89.9782,0.0,-12.63,11144222 
WAVCIS,ioos:station:WAVCIS:CSI09:1,2017-01-10T22:00:00Z,29.1015,-89.9782,0.0,-11.85,11144222 
WAVCIS,ioos:station:WAVCIS:CSI09:1,2017-01-10T23:00:00Z,29.1015,-89.9782,0.0,-12.49,11144222 
WAVCIS,ioos:station:WAVCIS:CSI09:1,2017-01-11T00:00:00Z,29.1015,-89.9782,0.0,-13.82,11144222 
WAVCIS,ioos:station:WAVCIS:CSI09:1,2017-01-11T01:00:00Z,29.1015,-89.9782,0.0,-13.43,11144222 
WAVCIS,ioos:station:WAVCIS:CSI09:1,2017-01-11T02:00:00Z,29.1015,-89.9782,0.0,-14.05,11144222 
WAVCIS,ioos:station:WAVCIS:CSI09:1,2017-01-11T03:00:00Z,29.1015,-89.9782,0.0,-13.29,11144222 
WAVCIS,ioos:station:WAVCIS:CSI09:1,2017-01-11T04:00:00Z,29.1015,-89.9782,0.0,-13.64,11144222 
WAVCIS,ioos:station:WAVCIS:CSI09:1,2017-01-11T05:00:00Z,29.1015,-89.9782,0.0,-14.18,11144222 
WAVCIS,ioos:station:WAVCIS:CSI09:1,2017-01-11T06:00:00Z,29.1015,-89.9782,0.0,-14.37,11144222 
WAVCIS,ioos:station:WAVCIS:CSI09:1,2017-01-11T07:00:00Z,29.1015,-89.9782,0.0,-14.09,11144222 
WAVCIS,ioos:station:WAVCIS:CSI09:1,2017-01-11T08:00:00Z,29.1015,-89.9782,0.0,-14.3,11144222 
WAVCIS,ioos:station:WAVCIS:CSI09:1,2017-01-11T09:00:00Z,29.1015,-89.9782,0.0,-13.78,11144222 
WAVCIS,ioos:station:WAVCIS:CSI09:1,2017-01-11T10:00:00Z,29.1015,-89.9782,0.0,-13.84,11144222 
WAVCIS,ioos:station:WAVCIS:CSI09:1,2017-01-11T11:00:00Z,29.1015,-89.9782,0.0,-14.17,11144222 
WAVCIS,ioos:station:WAVCIS:CSI09:1,2017-01-11T12:00:00Z,29.1015,-89.9782,0.0,-14.58,11144222 
WAVCIS,ioos:station:WAVCIS:CSI09:1,2017-01-11T13:00:00Z,29.1015,-89.9782,0.0,-14.33,11144222 